Tracking 29495 objects as of 7-Sep-2024
HD Live streaming from Space Station
objects crossing your sky now

THORAD DELTA 1 DEB

Track THORAD DELTA 1 DEB now!
10-day predictions


NORAD ID: 42608
Int'l Code: 1974-089FZ
Perigee: 1,506.4 km
Apogee: 1,623.0 km
Inclination: 102.5 °
Period: 117.3 minutes
Semi major axis: 7935 km
RCS: Unknown
Launch date: November 15, 1974
Source: United States (US)
Launch site: AIR FORCE WESTERN TEST RANGE (AFWTR)

Note: This is SATELLITE DEBRIS
Your satellite tracking list
Your tracking list is empty




NASA's NSSDC Master Catalog

Two Line Element Set (TLE):
1 42608U 74089FZ  24251.17261009 -.00000001  00000-0  38593-3 0  9991
2 42608 102.4609 226.2663 0073437 287.3616  71.9417 12.28069216483874
Source of the keplerian elements: AFSPC